Weather History for KYKN - November, 2013

Change the Weather History Date:

Tuesday, November 12, 2013

  Actual Average Record
Temperature  
Mean Temperature 22 °F -  
Max Temperature 37 °F 43 °F 70 °F (1967)
Min Temperature 8 °F 22 °F -8 °F (1986)
Degree Days  
Heating Degree Days 42    
Moisture  
Dew Point 10 °F    
Average Humidity 62    
Maximum Humidity 92    
Minimum Humidity 30    
Precipitation  
Precipitation 0.00 in - - ()
Sea Level Pressure  
Sea Level Pressure 30.67 in    
Wind  
Wind Speed 6 mph (SSW)    
Max Wind Speed 15 mph    
Max Gust Speed 18 mph    
Visibility 10 miles    
Events      
Averages and records for this station are not official NWS values.
T = Trace of Precipitation, MM = Missing Value Source: NWS Daily Summary

Daily Weather History Graph

Daily Weather History Graph

Search for Another Location

Airport or City:

Trip Planner

Search our weather history database for the weather conditions in past years. The results will help you decide how hot, cold, wet, or windy it might be!

Date:

Astronomy

Nov. 12, 2013 Rise Set
Actual Time 7:18 AM CST 5:08 PM CST
Civil Twilight 6:47 AM CST 5:39 PM CST
Nautical Twilight 6:13 AM CST 6:13 PM CST
Astronomical Twilight 5:40 AM CST 6:46 PM CST
Moon 2:30 PM CST (11/12) 2:02 AM CST (11/12)
Length of Visible Light 10h 51m
Length of Day
9h 50m
Waxing Gibbous, 76% of the Moon is Illuminated
Nov 12
Waxing Gibbous
Nov 17
Full
Nov 25
Last Quarter
Dec 2
New
Dec 9
First Quarter

Hourly Weather History & Observations

Time (CST) Temp. Windchill Dew Point Humidity Pressure Visibility Wind Dir Wind Speed Gust Speed Precip Events Conditions
12:15 AM 10.4 °F 0.8 °F 6.8 °F 85% 30.79 in 10.0 mi WNW 5.8 mph - N/A   Clear
12:35 AM 10.4 °F -0.4 °F 3.2 °F 73% 30.80 in 10.0 mi NW 6.9 mph - N/A   Clear
12:55 AM 10.4 °F -0.4 °F 6.8 °F 85% 30.80 in 10.0 mi NW 6.9 mph - N/A   Clear
1:15 AM 8.6 °F -2.6 °F 5.0 °F 85% 30.80 in 10.0 mi NW 6.9 mph - N/A   Clear
1:35 AM 8.6 °F -2.6 °F 5.0 °F 85% 30.80 in 10.0 mi WNW 6.9 mph - N/A   Clear
1:55 AM 10.4 °F 0.8 °F 6.8 °F 85% 30.79 in 10.0 mi WNW 5.8 mph - N/A   Clear
2:15 AM 10.4 °F 0.8 °F 5.0 °F 79% 30.79 in 10.0 mi WNW 5.8 mph - N/A   Clear
2:35 AM 8.6 °F 0.1 °F 5.0 °F 85% 30.79 in 10.0 mi WNW 4.6 mph - N/A   Clear
2:55 AM 8.6 °F 2.0 °F 5.0 °F 85% 30.79 in 10.0 mi WNW 3.5 mph - N/A   Clear
3:15 AM 8.6 °F -1.3 °F 6.8 °F 92% 30.79 in 10.0 mi WNW 5.8 mph - N/A   Clear
3:35 AM 10.4 °F -0.4 °F 6.8 °F 85% 30.79 in 10.0 mi WNW 6.9 mph - N/A   Clear
3:55 AM 10.4 °F 4.0 °F 5.0 °F 79% 30.79 in 10.0 mi WNW 3.5 mph - N/A   Clear
4:15 AM 8.6 °F 2.0 °F 3.2 °F 79% 30.79 in 10.0 mi WNW 3.5 mph - N/A   Clear
4:35 AM 8.6 °F 0.1 °F 3.2 °F 79% 30.80 in 10.0 mi WNW 4.6 mph - N/A   Clear
4:55 AM 8.6 °F 0.1 °F 3.2 °F 79% 30.80 in 10.0 mi NW 4.6 mph - N/A   Clear
5:15 AM 8.6 °F - 3.2 °F 79% 30.80 in 10.0 mi Calm Calm - N/A   Clear
5:35 AM 8.6 °F 2.0 °F 3.2 °F 79% 30.81 in 10.0 mi NW 3.5 mph - N/A   Clear
5:55 AM 8.6 °F - 5.0 °F 85% 30.81 in 10.0 mi Calm Calm - N/A   Clear
6:15 AM 8.6 °F - 6.8 °F 92% 30.81 in 10.0 mi Calm Calm - N/A   Clear
6:35 AM 8.6 °F - 3.2 °F 79% 30.81 in 10.0 mi Calm Calm - N/A   Clear
6:55 AM 8.6 °F - 6.8 °F 92% 30.81 in 10.0 mi Calm Calm - N/A   Clear
7:15 AM 8.6 °F - 5.0 °F 85% 30.81 in 10.0 mi Calm Calm - N/A   Clear
7:35 AM 10.4 °F - 6.8 °F 85% 30.80 in 10.0 mi Calm Calm - N/A   Clear
7:55 AM 10.4 °F - 8.6 °F 92% 30.80 in 10.0 mi Calm Calm - N/A   Clear
8:15 AM 12.2 °F 6.1 °F 8.6 °F 85% 30.81 in 10.0 mi SSW 3.5 mph - N/A   Clear
8:35 AM 14.0 °F - 10.4 °F 86% 30.82 in 10.0 mi Calm Calm - N/A   Clear
8:55 AM 15.8 °F 8.6 °F 10.4 °F 79% 30.82 in 10.0 mi SSW 4.6 mph - N/A   Clear
9:15 AM 17.6 °F 10.7 °F 10.4 °F 73% 30.81 in 10.0 mi South 4.6 mph - N/A   Clear
9:35 AM 19.4 °F 10.4 °F 10.4 °F 68% 30.80 in 10.0 mi South 6.9 mph - N/A   Clear
9:55 AM 21.2 °F 12.6 °F 10.4 °F 63% 30.79 in 10.0 mi South 6.9 mph - N/A   Clear
10:15 AM 21.2 °F 11.7 °F 10.4 °F 63% 30.79 in 10.0 mi SSW 8.1 mph - N/A   Clear
10:35 AM 23.0 °F 13.9 °F 10.4 °F 59% 30.78 in 10.0 mi South 8.1 mph - N/A   Clear
10:55 AM 24.8 °F 16.1 °F 10.4 °F 54% 30.77 in 10.0 mi South 8.1 mph - N/A   Clear
11:15 AM 24.8 °F 15.3 °F 8.6 °F 50% 30.76 in 10.0 mi South 9.2 mph - N/A   Clear
11:35 AM 26.6 °F 18.2 °F 8.6 °F 47% 30.75 in 10.0 mi South 8.1 mph - N/A   Clear
11:55 AM 28.4 °F 20.4 °F 10.4 °F 47% 30.73 in 10.0 mi South 8.1 mph - N/A   Clear
12:15 PM 30.2 °F 20.2 °F 8.6 °F 40% 30.71 in 10.0 mi South 12.7 mph - N/A   Clear
12:35 PM 30.2 °F 21.9 °F 8.6 °F 40% 30.70 in 10.0 mi South 9.2 mph - N/A   Clear
12:55 PM 32.0 °F 23.6 °F 8.6 °F 38% 30.68 in 10.0 mi South 10.4 mph - N/A   Clear
1:15 PM 33.8 °F 25.3 °F 8.6 °F 35% 30.66 in 10.0 mi South 11.5 mph - N/A   Clear
1:35 PM 33.8 °F 25.8 °F 8.6 °F 35% 30.65 in 10.0 mi South 10.4 mph - N/A   Clear
1:55 PM 35.6 °F 28.0 °F 10.4 °F 35% 30.64 in 10.0 mi South 10.4 mph - N/A   Clear
2:15 PM 35.6 °F 27.5 °F 10.4 °F 35% 30.63 in 10.0 mi SSW 11.5 mph - N/A   Clear
2:35 PM 37.4 °F 28.5 °F 10.4 °F 33% 30.60 in 10.0 mi South 15.0 mph 18.4 mph N/A   Clear
2:55 PM 37.4 °F 28.5 °F 10.4 °F 33% 30.59 in 10.0 mi South 15.0 mph - N/A   Clear
3:15 PM 37.4 °F 28.9 °F 8.6 °F 30% 30.59 in 10.0 mi SSW 13.8 mph 18.4 mph N/A   Clear
3:35 PM 37.4 °F 29.3 °F 10.4 °F 33% 30.58 in 10.0 mi South 12.7 mph 18.4 mph N/A   Clear
3:55 PM 37.4 °F 30.3 °F 10.4 °F 33% 30.57 in 10.0 mi South 10.4 mph - N/A   Clear
4:15 PM 37.4 °F 30.3 °F 10.4 °F 33% 30.56 in 10.0 mi South 10.4 mph - N/A   Clear
4:35 PM 37.4 °F 30.3 °F 10.4 °F 33% 30.55 in 10.0 mi South 10.4 mph - N/A   Clear
4:55 PM 35.6 °F 28.6 °F 12.2 °F 38% 30.55 in 10.0 mi South 9.2 mph - N/A   Clear
5:15 PM 33.8 °F 27.0 °F 12.2 °F 41% 30.55 in 10.0 mi SSE 8.1 mph - N/A   Clear
5:35 PM 32.0 °F 26.4 °F 12.2 °F 44% 30.55 in 10.0 mi SSE 5.8 mph - N/A   Clear
5:55 PM 32.0 °F 25.6 °F 12.2 °F 44% 30.55 in 10.0 mi SE 6.9 mph - N/A   Clear
6:15 PM 30.2 °F 24.3 °F 12.2 °F 47% 30.56 in 10.0 mi ESE 5.8 mph - N/A   Clear
6:35 PM 30.2 °F 21.3 °F 12.2 °F 47% 30.55 in 10.0 mi SE 10.4 mph - N/A   Clear
6:55 PM 28.4 °F 19.1 °F 12.2 °F 51% 30.53 in 10.0 mi SE 10.4 mph - N/A   Clear
7:15 PM 28.4 °F 21.2 °F 12.2 °F 51% 30.54 in 10.0 mi SE 6.9 mph - N/A   Clear
7:35 PM 26.6 °F 18.2 °F 12.2 °F 55% 30.53 in 10.0 mi SE 8.1 mph - N/A   Clear
7:55 PM 26.6 °F 16.2 °F 12.2 °F 55% 30.52 in 10.0 mi SSE 11.5 mph - N/A   Clear
8:15 PM 28.4 °F 19.7 °F 12.2 °F 51% 30.51 in 10.0 mi SSE 9.2 mph - N/A   Clear
8:35 PM 26.6 °F 20.0 °F 12.2 °F 55% 30.49 in 10.0 mi SSE 5.8 mph - N/A   Clear
8:55 PM 26.6 °F 19.1 °F 14.0 °F 59% 30.48 in 10.0 mi SSE 6.9 mph - N/A   Clear
9:15 PM 26.6 °F 20.0 °F 14.0 °F 59% 30.48 in 10.0 mi SSE 5.8 mph - N/A   Clear
9:35 PM 26.6 °F 17.5 °F 15.8 °F 64% 30.47 in 10.0 mi South 9.2 mph - N/A   Clear
9:55 PM 24.8 °F 20.5 °F 14.0 °F 64% 30.45 in 10.0 mi South 3.5 mph - N/A   Clear
10:15 PM 28.4 °F 20.4 °F 19.4 °F 69% 30.44 in 10.0 mi South 8.1 mph - N/A   Clear
10:35 PM 30.2 °F 20.8 °F 17.6 °F 60% 30.43 in 10.0 mi SSW 11.5 mph - N/A   Clear
10:55 PM 32.0 °F 24.2 °F 17.6 °F 55% 30.42 in 10.0 mi SSW 9.2 mph - N/A   Clear
11:15 PM 32.0 °F 23.6 °F 17.6 °F 55% 30.41 in 10.0 mi SSW 10.4 mph - N/A   Clear
11:35 PM 30.2 °F 20.8 °F 17.6 °F 60% 30.40 in 10.0 mi SSW 11.5 mph - N/A   Clear
11:55 PM 30.2 °F 21.9 °F 17.6 °F 60% 30.39 in 10.0 mi SSW 9.2 mph - N/A   Clear